This demonstration page uses our WeatherBlox Daily Observations layout. Learn more.

Left ArrowRight Arrow

30.21309, -93.2044

Hourly Observations for May 14, 2015

Temp ( °F °C ) Dew Point ( °F °C ) Humidity (%) Winds ( mph kmh ) Pressure ( in mb ) Visibility ( mi km ) Precip ( " mm )
12:15 am 00:15 Clear 73 22.5 72 22 97 97 E 6 9 30.12 1020 7 11 0.00 0.00
12:35 am 00:35 Clear 73 22.7 72 22 96 96 ESE 5 7 30.09 1019 10 16 0.00 0.00
12:55 am 00:55 Clear 73 22.7 72 22 96 96 ESE 6 9 30.09 1019 10 16 0.00 0.00
1:15 am 01:15 Clear 73 23 72 22.1 95 95 E 5 7 30.09 1019 10 16 0.00 0.00
1:35 am 01:35 Clear 74 23.1 72 22.1 94 94 Calm 30.09 1019 10 16 0.00 0.00
1:55 am 01:55 Clear 73 23 72 22.1 95 95 E 5 7 30.09 1019 10 16 0.00 0.00
2:15 am 02:15 Clear 73 23 72 22.2 95 95 E 5 7 30.09 1019 7 11 0.00 0.00
2:35 am 02:35 Clear 73 22.5 72 22 97 97 ESE 3 6 30.09 1019 7 11 0.00 0.00
2:55 am 02:55 Clear 73 22.5 72 22 97 97 ESE 5 7 30.09 1019 7 11 0.00 0.00
3:15 am 03:15 Clear 73 22.6 71 21.9 96 96 Calm 30.09 1019 10 16 0.00 0.00
3:35 am 03:35 Clear 73 22.5 71 21.5 94 94 Calm 30.09 1019 10 16 0.00 0.00
3:55 am 03:55 Clear 72 22.3 70 21.3 94 94 Calm 30.09 1019 10 16 0.00 0.00
4:15 am 04:15 Clear 71 21.8 70 21 95 95 Calm 30.09 1019 10 16 0.00 0.00
4:35 am 04:35 Clear 72 22 70 21.1 95 95 Calm 30.09 1019 10 16 0.00 0.00
4:55 am 04:55 Clear 71 21.9 70 21 95 95 Calm 30.09 1019 10 16 0.00 0.00
5:15 am 05:15 Clear 71 21.8 70 21 95 95 Calm 30.09 1019 10 16 0.00 0.00
6:00 am 06:00 Mostly Cloudy 72 22 70 21 94 94 Calm 30.09 1019 10 16 0.00 0.00
6:45 am 06:45 Mostly Cloudy 72 22 70 21 94 94 Calm 30.09 1019 10 16 0.00 0.00
7:55 am 07:55 Mostly Cloudy 73 23 72 22 94 94 ESE 5 7 30.12 1020 10 16 0.00 0.00
8:45 am 08:45 Mostly Cloudy 77 25 73 23 89 89 ESE 5 7 30.12 1020 10 16 0.00 0.00
9:45 am 09:45 Mostly Cloudy 81 27 73 23 79 79 SSE 12 19 30.12 1020 10 16 0.00 0.00
10:45 am 10:45 Mostly Cloudy 82 28 72 22 70 70 SSE 8 13 30.12 1020 10 16 0.00 0.00
11:45 am 11:45 Mostly Cloudy 84 29 72 22 66 66 SSE 8 13 30.15 1021 10 16 0.00 0.00
12:50 pm 12:50 Mostly Cloudy 84 29 72 22 66 66 SSE 13 20 30.12 1020 10 16 0.00 0.00
1:45 pm 13:45 Mostly Cloudy 88 31 70 21 55 55 S 12 19 30.09 1019 10 16 0.00 0.00
2:50 pm 14:50 Partly Cloudy 88 31 70 21 55 55 S 7 11 30.06 1018 10 16 0.00 0.00
3:50 pm 15:50 Mostly Cloudy 86 30 70 21 59 59 SSE 12 19 30.06 1018 10 16 0.00 0.00
4:50 pm 16:50 Partly Cloudy 86 30 72 22 62 62 S 10 17 30.06 1018 10 16 0.00 0.00
5:50 pm 17:50 Mostly Sunny 82 28 72 22 70 70 SSW 12 19 30.06 1018 10 16 0.00 0.00
6:50 pm 18:50 Cloudy 81 27 72 22 74 74 SSW 9 15 30.06 1018 10 16 0.00 0.00
7:50 pm 19:50 Cloudy 79 26 72 22 79 79 SSE 3 6 30.03 1017 10 16 0.00 0.00
8:50 pm 20:50 Mostly Clear 79 26 72 22 79 79 SSW 6 9 30.06 1018 10 16 0.00 0.00
9:50 pm 21:50 Partly Cloudy 73 23 72 22 94 94 SSE 3 6 30.06 1018 10 16 0.00 0.00
10:15 pm 22:15 Clear 74 23.1 72 22.2 95 95 Calm 30.06 1018 10 16 0.00 0.00
10:35 pm 22:35 Clear 73 22.9 72 22 95 95 ESE 3 6 30.06 1018 10 16 0.00 0.00
10:55 pm 22:55 Clear 74 23.1 72 22.3 95 95 Calm 30.06 1018 10 16 0.00 0.00
11:15 pm 23:15 Partly Cloudy 73 23 72 22.3 96 96 ESE 3 6 30.06 1018 10 16 0.00 0.00
11:35 pm 23:35 Partly Cloudy 73 22.7 72 22.1 96 96 Calm 30.06 1018 7 11 0.00 0.00
11:55 pm 23:55 Clear 73 22.5 72 22 97 97 ESE 3 6 30.06 1018 7 11 0.00 0.00

Powered by AerisWeather